User: anonymous   Login
Location: Tierra Monte Subdivision
(35.2092°N, 106.4864°W)
Time: 10:35:56
(UTC+00:00)
Language:

CZ-2C R/B - Orbit

View from above orbital plane
View from above orbital plane
View from above satellite
View from above satellite

Ground track
Ground track

The orbit data is extracted from the following two-line orbital elements,

1 36089U 09061B   20184.90183924 -.00000063 +00000-0 -41487-5 0  9993
2 36089 098.1543 158.0350 0081027 224.6742 188.0127 14.49831292562693
Epoch (UTC): 02 July 2020 21:38:38
Eccentricity: 0.0081027
inclination: 98.1543°
perigee height: 668 km
apogee height: 784 km
right ascension of ascending node: 158.0350°
argument of perigee: 224.6742°
revolutions per day: 14.49831292
mean anomaly at epoch: 188.0127°
orbit number at epoch: 56269

The dashed part of the orbit path shows where the satellite is in the earth's shadow,  

DLR